Location: Blangy-Tronville
(49.8790°N, 2.4226°E)
Time: 23:18:54
(UTC+00:00)

Aureole 3 Rocket - Pass Details

Date: 18 November 2025
Orbit: 397 x 1691 km, 82.5° (Epoch: 05 December)

Event Time Altitude Azimuth Distance (km) Brightness Sun altitude
Rises 16:55:51 0° 158° (SSE) 2,309 6.0 -8.6°
Reaches altitude 10° 16:58:04 10° 141° (SE) 1,447 4.8 -8.9°
Maximum altitude 17:00:28 22° 88° (E) 970 3.5 -9.3°
Drops below altitude 10° 17:03:03 10° 36° (NE) 1,565 4.7 -9.7°
Enters shadow 17:03:25 - 33° (NNE) 1,705 4.9 -9.7°
